This demonstration page uses our WeatherBlox Daily Observations layout. Learn more.

Left ArrowRight Arrow

Hourly Observations for September 14, 2022

Temp ( °F °C ) Dew Point ( °F °C ) Humidity (%) Winds ( mph kmh ) Pressure ( in mb ) Visibility ( mi km ) Precip ( " mm )
12:15 am 00:15 Clear 63 17 55 13 77 77 NW 7 11 29.95 1014 10 16 0.00 0.00
12:35 am 00:35 Clear 63 17 55 13 77 77 NNW 8 13 29.95 1014 10 16 0.00 0.00
12:55 am 00:55 Clear 63 17 55 13 77 77 NW 8 13 29.97 1015 10 16 0.00 0.00
1:15 am 01:15 Clear 63 17 55 13 77 77 NW 9 15 29.97 1015 10 16 0.00 0.00
1:35 am 01:35 Clear 63 17 55 13 77 77 NNW 7 11 29.97 1015 10 16 0.00 0.00
1:55 am 01:55 Clear 61 16 55 13 82 82 NW 8 13 29.97 1015 10 16 0.00 0.00
2:15 am 02:15 Clear 63 17 55 13 77 77 N 6 9 29.98 1015 10 16 0.00 0.00
2:35 am 02:35 Clear 61 16 55 13 82 82 N 8 13 29.97 1015 10 16 0.00 0.00
2:55 am 02:55 Clear 61 16 55 13 82 82 NNW 6 9 29.98 1015 10 16 0.00 0.00
3:15 am 03:15 Clear 61 16 54 12 77 77 NNW 5 7 29.98 1015 10 16 0.00 0.00
3:35 am 03:35 Clear 61 16 54 12 77 77 Calm 29.98 1015 10 16 0.00 0.00
3:55 am 03:55 Clear 61 16 54 12 77 77 NW 7 11 29.98 1015 10 16 0.00 0.00
4:15 am 04:15 Clear 59 15 54 12 82 82 WNW 6 9 29.99 1016 N/A 0.00 0.00
4:35 am 04:35 undefined 59 15 54 12 82 82 WNW 6 9 30.00 1016 N/A 0.00 0.00
4:55 am 04:55 undefined 59 15 54 12 82 82 W 6 9 30.00 1016 N/A 0.00 0.00
5:15 am 05:15 undefined 57 14 54 12 88 88 NW 6 9 30.01 1016 N/A 0.00 0.00
5:35 am 05:35 undefined 59 15 54 12 82 82 NW 5 7 30.01 1016 N/A 0.00 0.00
5:55 am 05:55 Clear 59 15 54 12 82 82 Calm 30.02 1017 N/A 0.00 0.00
6:15 am 06:15 undefined 59 15 54 12 82 82 Calm 30.02 1017 N/A 0.00 0.00
6:35 am 06:35 undefined 57 14 54 12 88 88 NNW 3 6 30.03 1017 N/A 0.00 0.00
6:55 am 06:55 undefined 59 15 54 12 82 82 Calm 30.04 1017 N/A 0.00 0.00
7:15 am 07:15 undefined 57 14 54 12 88 88 WNW 3 6 30.05 1018 N/A 0.00 0.00
7:35 am 07:35 undefined 59 15 55 13 88 88 Calm 30.05 1018 N/A 0.00 0.00
7:55 am 07:55 Sunny 61 16 55 13 82 82 NNW 3 6 30.06 1018 N/A 0.00 0.00
8:15 am 08:15 Sunny 63 17 55 13 77 77 NNW 3 6 30.07 1018 N/A 0.00 0.00
8:35 am 08:35 Sunny 63 17 55 13 77 77 NW 8 13 30.07 1018 N/A 0.00 0.00
8:55 am 08:55 Sunny 64 18 57 14 77 77 NNW 7 11 30.07 1018 N/A 0.00 0.00
9:15 am 09:15 Sunny 66 19 57 14 73 73 NNW 7 11 30.07 1018 N/A 0.00 0.00
9:35 am 09:35 Sunny 68 20 57 14 68 68 N 9 15 30.07 1018 N/A 0.00 0.00
9:55 am 09:55 Sunny 68 20 59 15 73 73 NNW 7 11 30.08 1019 N/A 0.00 0.00
10:15 am 10:15 Sunny 70 21 59 15 69 69 NNW 12 19 30.08 1019 N/A 0.00 0.00
10:35 am 10:35 Sunny 70 21 59 15 69 69 NNW 7 11 30.09 1019 N/A 0.00 0.00
10:55 am 10:55 Sunny 72 22 61 16 69 69 NW 10 17 30.09 1019 N/A 0.00 0.00
11:15 am 11:15 Sunny 72 22 61 16 69 69 NW 12 19 30.09 1019 N/A 0.00 0.00
11:35 am 11:35 Sunny 73 23 61 16 65 65 NNW 9 15 30.09 1019 N/A 0.00 0.00
11:55 am 11:55 Sunny 73 23 61 16 65 65 N 9 15 30.09 1019 N/A 0.00 0.00
12:15 pm 12:15 Sunny 73 23 59 15 61 61 N 10 17 30.09 1019 N/A 0.00 0.00
12:35 pm 12:35 Sunny 75 24 61 16 61 61 NNW 12 19 30.09 1019 N/A 0.00 0.00
12:55 pm 12:55 Partly Cloudy 75 24 61 16 61 61 NNW 13 20 30.09 1019 N/A 0.00 0.00
1:15 pm 13:15 Partly Cloudy 77 25 61 16 57 57 NW 9 15 30.09 1019 N/A 0.00 0.00
1:35 pm 13:35 Mostly Cloudy 75 24 61 16 61 61 NW 15 24 30.09 1019 N/A 0.00 0.00
1:55 pm 13:55 Cloudy 77 25 61 16 57 57 NW 13 20 30.07 1018 N/A 0.00 0.00
2:15 pm 14:15 Mostly Cloudy 77 25 61 16 57 57 N 10 17 30.07 1018 N/A 0.00 0.00
2:35 pm 14:35 Mostly Cloudy 77 25 61 16 57 57 NW 16 26 30.06 1018 N/A 0.00 0.00
2:55 pm 14:55 Partly Cloudy 77 25 59 15 54 54 NNW 8 13 30.06 1018 N/A 0.00 0.00
3:15 pm 15:15 Partly Cloudy 79 26 59 15 51 51 N 12 19 30.05 1018 N/A 0.00 0.00
3:35 pm 15:35 Partly Cloudy 77 25 61 16 57 57 NW 7 11 30.06 1018 N/A 0.00 0.00
3:55 pm 15:55 Partly Cloudy 77 25 59 15 54 54 N 13 20 30.04 1017 N/A 0.00 0.00
4:15 pm 16:15 Sunny 79 26 61 16 54 54 NNW 12 19 30.04 1017 N/A 0.00 0.00
4:35 pm 16:35 Partly Cloudy 79 26 61 16 54 54 NNW 8 13 30.04 1017 N/A 0.00 0.00
4:55 pm 16:55 Partly Cloudy 77 25 61 16 57 57 NNW 13 20 30.06 1018 N/A 0.00 0.00
5:15 pm 17:15 Partly Cloudy 77 25 61 16 57 57 NNW 14 22 30.06 1018 N/A 0.00 0.00
5:35 pm 17:35 Partly Cloudy 77 25 61 16 57 57 N 15 24 30.06 1018 N/A 0.00 0.00
5:55 pm 17:55 Sunny 77 25 61 16 57 57 N 10 17 30.06 1018 N/A 0.00 0.00
6:15 pm 18:15 Sunny 77 25 61 16 57 57 N 6 9 30.06 1018 N/A 0.00 0.00
6:35 pm 18:35 Sunny 75 24 61 16 61 61 N 8 13 30.06 1018 N/A 0.00 0.00
6:55 pm 18:55 Sunny 75 24 61 16 61 61 N 6 9 30.06 1018 N/A 0.00 0.00
7:15 pm 19:15 Sunny 73 23 61 16 65 65 N 6 9 30.06 1018 N/A 0.00 0.00
7:35 pm 19:35 Clear 72 22 63 17 73 73 NW 5 7 30.07 1018 N/A 0.00 0.00
7:55 pm 19:55 Clear 70 21 63 17 78 78 NW 5 7 30.07 1018 10 16 0.00 0.00
8:15 pm 20:15 Clear 68 20 63 17 83 83 NW 5 7 30.08 1019 10 16 0.00 0.00
8:35 pm 20:35 Clear 70 21 63 17 78 78 NNW 6 9 30.09 1019 10 16 0.00 0.00
8:55 pm 20:55 Clear 70 21 61 16 73 73 Calm 30.10 1019 10 16 0.00 0.00
9:15 pm 21:15 Clear 70 21 61 16 73 73 Calm 30.11 1020 10 16 0.00 0.00
9:35 pm 21:35 Clear 64 18 61 16 88 88 Calm 30.12 1020 10 16 0.00 0.00
9:55 pm 21:55 Clear 66 19 63 17 88 88 Calm 30.12 1020 10 16 0.00 0.00
10:15 pm 22:15 Clear 64 18 61 16 88 88 Calm 30.13 1020 10 16 0.00 0.00
10:35 pm 22:35 Clear 64 18 63 17 94 94 WNW 3 6 30.13 1020 10 16 0.00 0.00
10:55 pm 22:55 Clear 63 17 61 16 94 94 Calm 30.13 1020 10 16 0.00 0.00
11:15 pm 23:15 Clear 63 17 61 16 94 94 Calm 30.15 1021 10 16 0.00 0.00
11:35 pm 23:35 Clear 63 17 61 16 94 94 WNW 3 6 30.15 1021 10 16 0.00 0.00
11:55 pm 23:55 Clear 63 17 61 16 94 94 W 3 6 30.15 1021 10 16 0.00 0.00

Powered by AerisWeather